Regional Weather Roundup
Issued by NWS

Home | Current Version | Previous Version | Graphics & Text | Print | Product List | Glossary On
Versions: 1 2 3 4 5 6 7 8 9 10 11 12 13 14 15 16 17 18 19 20 21 22 23 24 25 26 27 28 29 30 31 32 33 34 35 36 37 38 39 40 41 42 43 44 45 46 47 48 49 50
000
ASUS43 KFSD 162310
RWRSD

WEATHER ROUNDUP FOR SOUTH DAKOTA
NATIONAL WEATHER SERVICE SIOUX FALLS SD
500 PM CST THU NOV 16 2017

NOTE: "FAIR" INDICATES FEW OR NO CLOUDS BELOW 12,000 FEET WITH NO
SIGNIFICANT WEATHER AND/OR OBSTRUCTIONS TO VISIBILITY.


SDZ001>005-009-010-012>017-170000-
NORTHWEST AND NORTH CENTRAL SOUTH DAKOTA

CITY           SKY/WX    TMP DP  RH WIND       PRES   REMARKS
BUFFALO          N/A     36  25  64 NE3       29.42F
FAITH            N/A     44  30  57 S9        29.52S
MOBRIDGE       CLOUDY    44  28  53 SE17      29.53F
$$

SDZ012>016-024>037-041>051-057-063-072>074-170000-
SOUTHWEST AND SOUTH CENTRAL SOUTH DAKOTA

CITY           SKY/WX    TMP DP  RH WIND       PRES   REMARKS
RAPID CTY ARPT CLOUDY    71  25  17 W22G31    29.51R
PIERRE         CLOUDY    54  33  45 E13       29.54S
CUSTER         CLOUDY    57  21  24 SW14G25   29.63R
ELLSWORTH AFB  CLOUDY    69  26  20 W13       29.51R
PHILIP         CLOUDY    57  32  38 E6        29.50F
PINE RIDGE     CLOUDY    64  29  26 S16G25    29.58S
SPEARFISH      FAIR      64  27  24 SW21G32   29.51S
WINNER         FAIR      59  32  36 S26G41    29.59F
$$

SDZ004>011-016>023-039-040-170000-
NORTHEAST SOUTH DAKOTA

CITY           SKY/WX    TMP DP  RH WIND       PRES   REMARKS
ABERDEEN       CLOUDY    39  26  59 S18G31    29.70F
WATERTOWN      CLOUDY    34  26  72 SE21G29   29.77F WCI  22
BROOKINGS      CLOUDY    34  24  67 SE17G23   29.82S WCI  23
SISSETON         N/A     30  25  81 SE22G32   29.81F WCI  17
$$

SDZ017-020-022-023-036>040-048>070-170000-
SOUTHEAST SOUTH DAKOTA

CITY           SKY/WX    TMP DP  RH WIND       PRES   REMARKS
SIOUX FALLS    CLOUDY    38  26  62 SE16G24   29.85F
HURON          CLOUDY    39  25  57 SE22G36   29.70F
CHAMBERLAIN    CLOUDY    56  34  42 SE21      29.62F
MITCHELL       CLOUDY    46  28  49 SE24G32   29.75F
$$

ABBREVIATIONS USED IN REMARKS
   TC - TEMPERATURE IN CELSIUS
  WCI - WIND CHILL INDEX
   HX - HEAT INDEX
  VSB - VISIBILITY





USA.gov is the U.S. government's official web portal to all federal, state and local government web resources and services.